Beaufort, NC

12:02 PM EDT on June 24, 2018 (GMT -0400)
Smith

Weather History for KMRH - June, 2018

Change the Weather History Date:

Thursday, June 14, 2018

  Actual Average Record
Temperature  
Mean Temperature 78 °F -  
Max Temperature 84 °F 83 °F 93 °F (2015)
Min Temperature 73 °F 65 °F 52 °F (1980)
Cooling Degree Days 12    
Growing Degree Days 28 (Base 50)    
Moisture  
Dew Point 74 °F    
Average Humidity 88    
Maximum Humidity 96    
Minimum Humidity 79    
Precipitation  
Precipitation 0.50 in - - ()
Sea Level Pressure  
Sea Level Pressure 29.96 in    
Wind  
Wind Speed 12 mph (WSW)    
Max Wind Speed 18 mph    
Max Gust Speed 23 mph    
Visibility 9 miles    
Events Rain , Thunderstorm    
Averages and records for this station are not official NWS values.
T = Trace of Precipitation, MM = Missing Value Source: NWS Daily Summary

Daily Weather History Graph

Daily Weather History Graph

Search for Another Location

Airport or City:

Astronomy

Jun. 14, 2018 Rise Set
Actual Time 5:52 AM EDT 8:21 PM EDT
Civil Twilight 5:23 AM EDT 8:50 PM EDT
Nautical Twilight 4:46 AM EDT 9:27 PM EDT
Astronomical Twilight 4:06 AM EDT 10:07 PM EDT
Moon 6:45 AM EDT (6/14) 9:21 PM EDT (6/14)
Length of Visible Light 15h 27m
Length of Day
14h 28m
New Moon, 1% of the Moon is Illuminated
Jun 14
New Moon
Jun 20
First Quarter
Jun 28
Full
Jul 6
Last Quarter
Jul 12
New

Hourly Weather History & Observations

Time (EDT) Temp. Heat Index Dew Point Humidity Pressure Visibility Wind Dir Wind Speed Gust Speed Precip Events Conditions
12:18 AM 78.1 °F - 73.9 °F 87% 29.99 in 10.0 mi WSW 12.7 mph - N/A   Mostly Cloudy
12:46 AM 78.1 °F - 73.9 °F 87% 29.99 in 10.0 mi WSW 11.5 mph - N/A   Scattered Clouds
12:58 AM 78.1 °F - 73.9 °F 87% 29.99 in 10.0 mi WSW 13.8 mph - N/A   Partly Cloudy
1:25 AM 78.1 °F - 73.9 °F 87% 29.99 in 10.0 mi WSW 13.8 mph - N/A   Mostly Cloudy
1:35 AM 78.1 °F - 73.9 °F 87% 29.98 in 10.0 mi WSW 10.4 mph - N/A   Partly Cloudy
1:58 AM 78.1 °F - 75.0 °F 90% 29.98 in 10.0 mi WSW 10.4 mph - N/A   Scattered Clouds
2:06 AM 78.1 °F - 75.0 °F 90% 29.97 in 10.0 mi WSW 11.5 mph - N/A   Mostly Cloudy
2:13 AM 78.1 °F - 75.0 °F 90% 29.97 in 10.0 mi WSW 10.4 mph - N/A   Mostly Cloudy
2:19 AM 78.1 °F - 75.0 °F 90% 29.97 in 10.0 mi WSW 12.7 mph 19.6 mph N/A   Scattered Clouds
2:58 AM 78.1 °F - 73.9 °F 87% 29.97 in 10.0 mi WSW 10.4 mph - N/A   Partly Cloudy
3:58 AM 78.1 °F - 75.0 °F 90% 29.96 in 10.0 mi WSW 13.8 mph - N/A   Partly Cloudy
4:58 AM 77.0 °F - 73.9 °F 90% 29.97 in 10.0 mi WSW 10.4 mph - N/A   Clear
5:58 AM 77.0 °F - 73.0 °F 88% 29.97 in 10.0 mi WSW 11.5 mph - N/A   Mostly Cloudy
6:58 AM 77.0 °F - 72.0 °F 84% 29.97 in 10.0 mi West 12.7 mph - N/A   Mostly Cloudy
7:58 AM 79.0 °F - 73.9 °F 84% 29.98 in 10.0 mi West 10.4 mph - N/A   Clear
8:58 AM 81.0 °F 86.2 °F 73.9 °F 79% 29.98 in 10.0 mi WSW 9.2 mph - N/A   Clear
9:58 AM 82.0 °F 88.6 °F 75.0 °F 79% 29.98 in 10.0 mi WSW 10.4 mph - N/A   Clear
10:58 AM 82.0 °F 89.4 °F 75.9 °F 82% 29.98 in 10.0 mi SW 16.1 mph - N/A   Clear
11:58 AM 82.9 °F 91.8 °F 77.0 °F 82% 29.97 in 10.0 mi SW 16.1 mph - N/A   Clear
12:58 PM 82.9 °F 90.8 °F 75.9 °F 79% 29.95 in 10.0 mi SW 16.1 mph - N/A   Clear
1:24 PM 82.9 °F 91.8 °F 77.0 °F 82% 29.93 in 10.0 mi SSW 18.4 mph - N/A Thunderstorm Clear
1:58 PM 82.0 °F 89.4 °F 75.9 °F 82% 29.94 in 10.0 mi SSW 15.0 mph 23.0 mph N/A Thunderstorm Thunderstorm
2:37 PM 78.1 °F - 75.0 °F 90% 29.95 in 1.8 mi West 6.9 mph - 0.10 in Rain , Thunderstorm Heavy Thunderstorms and Rain
2:49 PM 77.0 °F - 75.9 °F 96% 29.94 in 1.0 mi SW 17.3 mph 21.9 mph 0.26 in Rain , Thunderstorm Heavy Thunderstorms and Rain
2:58 PM 75.0 °F - 72.0 °F 90% 29.94 in 2.0 mi SW 15.0 mph - 0.32 in Rain , Thunderstorm Heavy Thunderstorms and Rain
3:13 PM 75.0 °F - 73.0 °F 94% 29.95 in 4.0 mi WSW 13.8 mph - 0.04 in Rain , Thunderstorm Light Thunderstorms and Rain
3:53 PM 73.4 °F - 71.6 °F 94% 29.94 in 10.0 mi WSW 11.5 mph - 0.12 in Rain Light Rain
3:54 PM 73.0 °F - 71.1 °F 93% 29.94 in 10.0 mi WSW 12.7 mph - 0.12 in Rain Light Rain
4:07 PM 73.9 °F - 72.0 °F 93% 29.94 in 10.0 mi WSW 12.7 mph - 0.00 in Rain , Thunderstorm Light Rain
4:48 PM 73.0 °F - 71.1 °F 93% 29.93 in 10.0 mi SSW 18.4 mph - 0.04 in Rain Light Rain
4:58 PM 73.0 °F - 71.1 °F 93% 29.93 in 9.0 mi SW 15.0 mph - 0.05 in Rain Rain
5:58 PM 73.9 °F - 72.0 °F 93% 29.93 in 10.0 mi WSW 10.4 mph - 0.01 in   Clear
6:58 PM 75.9 °F - 73.0 °F 91% 29.91 in 10.0 mi SW 10.4 mph - N/A   Clear
7:58 PM 77.0 °F - 72.0 °F 84% 29.94 in 10.0 mi WSW 6.9 mph - N/A   Clear
8:58 PM 77.0 °F - 73.0 °F 88% 29.94 in 10.0 mi West 8.1 mph - N/A   Clear
9:58 PM 77.0 °F - 73.0 °F 88% 29.95 in 10.0 mi West 6.9 mph - N/A   Clear
10:58 PM 75.9 °F - 73.9 °F 94% 29.96 in 10.0 mi NW 5.8 mph - N/A   Clear
11:58 PM 75.0 °F - 73.0 °F 94% 29.96 in 10.0 mi NW 6.9 mph - N/A   Clear